Location: Newark
(52.3500°N, 175.9667°E)
Time: 06:30:31
(UTC+00:00)

S-56A Canister/Altair - Pass Details

Date: 24 April 2021
Orbit: 631 x 2501 km, 38.9° (Epoch: 12 May)

Event Time Altitude Azimuth Distance (km) Brightness Sun altitude
Rises 13:39:23 0° 258° (WSW) 4,122 - -22.1°
Reaches altitude 10° 13:43:25 10° 242° (WSW) 2,813 - -21.8°
Maximum altitude 13:47:42 19° 200° (SSW) 1,941 - -21.6°
Drops below altitude 10° 13:51:14 10° 156° (SSE) 2,248 - -21.3°
Sets 13:54:01 0° 137° (SE) 3,027 - -21.1°
